| time (UTC) | temp C | wind direction | speed KPH | gust KPH | rain 1hr cm | rain 24hr cm | rain mn cm | humidity % | barometer mb |
| 20260503174518 | 13 | 20 | 1.6 | 14.5 | 0.00 | 0.00 | 0.00 | 46 | 1018.8 |
| 20260503173022 | 13 | 215 | 1.6 | 8.0 | 0.00 | 0.00 | 0.00 | 47 | 1018.9 |
| 20260503171529 | 13 | 159 | 1.6 | 8.0 | 0.00 | 0.00 | 0.00 | 47 | 1019.1 |
| 20260503081549 | 2 | 196 | 0.0 | 3.2 | 0.00 | 0.00 | 0.00 | 87 | 1018.5 |
| 20260503071531 | 3 | 192 | 0.0 | 0.0 | 0.00 | 0.00 | 0.00 | 83 | 1018.1 |
| 20260503054549 | 4 | 190 | 0.0 | 4.8 | 0.00 | 0.00 | 0.00 | 80 | 1018.1 |
| 20260503053101 | 5 | 193 | 1.6 | 4.8 | 0.00 | 0.00 | 0.00 | 80 | 1018.1 |
| 20260503051513 | 5 | 355 | 0.0 | 3.2 | 0.00 | 0.00 | 0.00 | 80 | 1018.1 |
| 20260503050029 | 5 | 202 | 0.0 | 3.2 | 0.00 | 0.00 | 0.00 | 80 | 1018.2 |
| 20260503044544 | 5 | 206 | 0.0 | 3.2 | 0.00 | 0.00 | 0.00 | 79 | 1018.3 |
| 20260503043034 | 5 | 227 | 1.6 | 4.8 | 0.00 | 0.00 | 0.00 | 78 | 1018.3 |
| 20260503041543 | 5 | 34 | 0.0 | 4.8 | 0.00 | 0.00 | 0.00 | 78 | 1018.4 |
| 20260503040047 | 5 | 32 | 0.0 | 3.2 | 0.00 | 0.00 | 0.00 | 78 | 1018.1 |
| 20260503034610 | 5 | 27 | 0.0 | 3.2 | 0.00 | 0.00 | 0.00 | 79 | 1018.2 |
| 20260503033003 | 5 | 27 | 0.0 | 1.6 | 0.00 | 0.00 | 0.00 | 78 | 1018.3 |
| 20260503031513 | 5 | 19 | 0.0 | 3.2 | 0.00 | 0.00 | 0.00 | 78 | 1018.2 |
| 20260503030019 | 5 | 19 | 0.0 | 3.2 | 0.00 | 0.00 | 0.00 | 77 | 1018.2 |
| 20260503024527 | 5 | 22 | 0.0 | 4.8 | 0.00 | 0.00 | 0.00 | 77 | 1018.3 |
| 20260503023040 | 5 | 40 | 0.0 | 4.8 | 0.00 | 0.00 | 0.00 | 77 | 1018.3 |
| 20260503021551 | 5 | 28 | 1.6 | 4.8 | 0.00 | 0.00 | 0.00 | 77 | 1018.5 |
| 20260503020057 | 6 | 21 | 1.6 | 4.8 | 0.00 | 0.00 | 0.00 | 76 | 1018.3 |
| 20260503014507 | 6 | 41 | 0.0 | 3.2 | 0.00 | 0.00 | 0.00 | 75 | 1018.4 |
| 20260503013015 | 6 | 27 | 0.0 | 3.2 | 0.00 | 0.00 | 0.00 | 76 | 1018.3 |
| 20260503011525 | 6 | 29 | 1.6 | 6.4 | 0.00 | 0.00 | 0.00 | 74 | 1018.2 |
| 20260503010034 | 6 | 66 | 0.0 | 4.8 | 0.00 | 0.03 | 0.00 | 74 | 1018.1 |
| 20260503004538 | 6 | 24 | 1.6 | 4.8 | 0.00 | 0.03 | 0.00 | 75 | 1017.7 |
| 20260503003050 | 6 | 28 | 1.6 | 4.8 | 0.00 | 0.03 | 0.00 | 75 | 1017.7 |
| 20260503001608 | 6 | 24 | 1.6 | 4.8 | 0.00 | 0.03 | 0.00 | 74 | 1017.5 |
| 20260503000104 | 6 | 31 | 1.6 | 4.8 | 0.00 | 0.03 | 0.00 | 74 | 1017.3 |
| 20260502234507 | 6 | 19 | 1.6 | 8.0 | 0.00 | 0.03 | 0.00 | 72 | 1017.3 |
| 20260502233023 | 7 | 214 | 1.6 | 4.8 | 0.00 | 0.03 | 0.00 | 71 | 1017.3 |
| 20260502231525 | 7 | 28 | 3.2 | 8.0 | 0.00 | 0.03 | 0.00 | 70 | 1016.9 |
| 20260502230036 | 7 | 26 | 3.2 | 9.7 | 0.00 | 0.05 | 0.00 | 70 | 1016.7 |
| 20260502224541 | 8 | 19 | 3.2 | 9.7 | 0.00 | 0.05 | 0.00 | 68 | 1016.6 |
| 20260502223049 | 8 | 25 | 1.6 | 6.4 | 0.00 | 0.05 | 0.00 | 68 | 1016.4 |
| 20260502221557 | 8 | 30 | 3.2 | 8.0 | 0.00 | 0.05 | 0.00 | 68 | 1016.3 |
| 20260502220101 | 9 | 63 | 1.6 | 6.4 | 0.00 | 0.05 | 0.00 | 66 | 1016.2 |
| 20260502214509 | 10 | 128 | 3.2 | 9.7 | 0.00 | 0.05 | 0.00 | 58 | 1015.8 |
| 20260502213026 | 10 | 47 | 1.6 | 6.4 | 0.00 | 0.05 | 0.00 | 57 | 1015.7 |
| 20260502211535 | 10 | 11 | 3.2 | 6.4 | 0.00 | 0.05 | 0.00 | 58 | 1015.7 |
| 20260502210047 | 9 | 47 | 0.0 | 8.0 | 0.00 | 0.05 | 0.00 | 58 | 1015.6 |
| 20260502204553 | 10 | 17 | 1.6 | 9.7 | 0.00 | 0.05 | 0.00 | 58 | 1015.6 |
| 20260502203101 | 10 | 32 | 1.6 | 4.8 | 0.00 | 0.05 | 0.00 | 55 | 1015.5 |
| 20260502201504 | 10 | 44 | 1.6 | 11.3 | 0.00 | 0.05 | 0.00 | 55 | 1015.6 |
| 20260502200022 | 11 | 22 | 1.6 | 8.0 | 0.00 | 0.05 | 0.00 | 57 | 1015.7 |
| 20260502194539 | 11 | 38 | 3.2 | 12.9 | 0.00 | 0.05 | 0.00 | 57 | 1015.7 |
| 20260502193044 | 10 | 44 | 3.2 | 8.0 | 0.00 | 0.05 | 0.00 | 59 | 1016.1 |
| 20260502191553 | 10 | 30 | 3.2 | 6.4 | 0.00 | 0.05 | 0.00 | 55 | 1016.0 |
| 20260502190001 | 10 | 115 | 1.6 | 9.7 | 0.00 | 0.05 | 0.00 | 57 | 1016.2 |
| 20260502184509 | 10 | 164 | 1.6 | 12.9 | 0.00 | 0.05 | 0.00 | 58 | 1016.3 |
| 20260502183015 | 10 | 42 | 3.2 | 6.4 | 0.00 | 0.05 | 0.00 | 57 | 1016.4 |
| 20260502181537 | 10 | 111 | 1.6 | 8.0 | 0.00 | 0.05 | 0.00 | 57 | 1016.5 |